This is the latest recevied weather packets stored in our database for station/object N2UFM. If no packets are shown the sender has not sent any weather packets the latest 10 day(s).
| Time | Temp. | Humidity | Pressure | Rain* | Wind** | Luminosity | Snow |
|---|---|---|---|---|---|---|---|
| 1777573815 | 16.11° C | 74% | 1008 hPa | 0 mm | - | - | - |
| 1777573515 | 16.67° C | 74% | 1008 hPa | 0 mm | - | - | - |
| 1777573214 | 16.67° C | 74% | 1008.1 hPa | 0 mm | - | - | - |
| 1777572914 | 16.67° C | 74% | 1008.1 hPa | 0 mm | - | - | - |
| 1777572614 | 15.56° C | 76% | 1008 hPa | 0 mm | - | - | - |
| 1777572314 | 15.56° C | 77% | 1008.1 hPa | 0 mm | - | - | - |
| 1777572014 | 15° C | 78% | 1008.2 hPa | 0 mm | - | - | - |
| 1777571714 | 15° C | 78% | 1008.2 hPa | 0 mm | - | - | - |
| 1777571414 | 15° C | 79% | 1008.3 hPa | 0 mm | - | - | - |
| 1777571113 | 15° C | 77% | 1008.3 hPa | 0 mm | - | - | - |
| 1777570813 | 15° C | 78% | 1008.3 hPa | 0 mm | - | - | - |
| 1777570515 | 15° C | 77% | 1008.3 hPa | 0 mm | - | - | - |
| 1777570213 | 15.56° C | 75% | 1008.2 hPa | 0 mm | - | - | - |
| 1777569913 | 15.56° C | 77% | 1008.3 hPa | 0 mm | - | - | - |
| 1777569613 | 15.56° C | 79% | 1008.2 hPa | 0 mm | - | - | - |
| 1777569312 | 15° C | 79% | 1008.3 hPa | 0 mm | - | - | - |
| 1777569012 | 14.44° C | 80% | 1008.1 hPa | 0 mm | - | - | - |
| 1777568712 | 14.44° C | 81% | 1008.1 hPa | 0 mm | - | - | - |
| 1777568412 | 13.89° C | 82% | 1008.2 hPa | 0 mm | - | - | - |
| 1777568112 | 13.89° C | 82% | 1008.2 hPa | 0 mm | - | - | - |
| 1777567812 | 13.89° C | 83% | 1008.1 hPa | 0 mm | - | - | - |
| 1777567512 | 13.89° C | 82% | 1008.3 hPa | 0 mm | - | - | - |
| 1777567211 | 13.89° C | 82% | 1008.2 hPa | 0 mm | - | - | - |
| 1777566911 | 13.89° C | 82% | 1008.2 hPa | 0 mm | - | - | - |
| 1777566611 | 13.89° C | 83% | 1008.2 hPa | 0 mm | - | - | - |
* Rain latest hour (hover to see other rain measurements)
** Current wind speed in m/s (hover to see current wind gust speed)